Weather History for KSDY - January, 2014

Change the Weather History Date:

Saturday, January 18, 2014

  Actual Average (KISN) Record (KISN)
Temperature  
Mean Temperature 35 °F 11 °F  
Max Temperature 42 °F 22 °F 49 °F (1900)
Min Temperature 28 °F 0 °F -37 °F (1950)
Degree Days  
Heating Degree Days 30 54  
Month to date heating degree days 982  
Since 1 July heating degree days 4729  
Cooling Degree Days 0 0  
Month to date cooling degree days 0  
Year to date cooling degree days 0  
Moisture  
Dew Point 27 °F    
Average Humidity 74    
Maximum Humidity 86    
Minimum Humidity 57    
Precipitation  
Precipitation 0.00 in 0.02 in 0.11 in (1977)
Month to date precipitation 0.38  
Year to date precipitation 0.38  
Sea Level Pressure  
Sea Level Pressure 29.95 in    
Wind  
Wind Speed 15 mph (WSW)    
Max Wind Speed 25 mph    
Max Gust Speed 33 mph    
Visibility 10 miles    
Events      
T = Trace of Precipitation, MM = Missing Value Source: NWS Daily Summary

Daily Weather History Graph

Daily Weather History Graph

Search for Another Location

Airport or City:

Trip Planner

Search our weather history database for the weather conditions in past years. The results will help you decide how hot, cold, wet, or windy it might be!

Date:

Astronomy

Jan. 18, 2014 Rise Set
Actual Time 7:38 AM MST 4:36 PM MST
Civil Twilight 7:03 AM MST 5:11 PM MST
Nautical Twilight 6:25 AM MST 5:49 PM MST
Astronomical Twilight 5:48 AM MST 6:26 PM MST
Moon 7:36 PM MST (1/18) 8:25 AM MST (1/18)
Length of Visible Light 10h 07m
Length of Day
8h 58m
Waning Gibbous, 94% of the Moon is Illuminated
Jan 18
Waning Gibbous
Jan 23
Last Quarter
Jan 30
New
Feb 6
First Quarter
Feb 14
Full

Hourly Weather History & Observations

Time (MST) Temp. Windchill Dew Point Humidity Pressure Visibility Wind Dir Wind Speed Gust Speed Precip Events Conditions
12:35 AM 35.6 °F 24.2 °F 26.6 °F 70% 29.88 in 10.0 mi WNW 21.9 mph 29.9 mph N/A   Clear
12:55 AM 35.6 °F 24.5 °F 26.6 °F 70% 29.89 in 10.0 mi WNW 20.7 mph - N/A   Clear
1:15 AM 35.6 °F 24.0 °F 26.6 °F 70% 29.90 in 10.0 mi WNW 23.0 mph 33.4 mph N/A   Clear
1:35 AM 35.6 °F 23.4 °F 26.6 °F 70% 29.91 in 10.0 mi WNW 25.3 mph 33.4 mph N/A   Clear
1:55 AM 35.6 °F 24.2 °F 26.6 °F 70% 29.93 in 10.0 mi WNW 21.9 mph 29.9 mph N/A   Clear
2:15 AM 33.8 °F 21.9 °F 26.6 °F 75% 29.94 in 10.0 mi WNW 21.9 mph 27.6 mph N/A   Clear
2:35 AM 33.8 °F 22.8 °F 26.6 °F 75% 29.96 in 10.0 mi NW 18.4 mph 26.5 mph N/A   Partly Cloudy
2:55 AM 33.8 °F 23.5 °F 26.6 °F 75% 29.98 in 10.0 mi NW 16.1 mph 23.0 mph N/A   Mostly Cloudy
3:15 AM 33.8 °F 24.3 °F 26.6 °F 75% 29.99 in 10.0 mi WNW 13.8 mph 21.9 mph N/A   Partly Cloudy
3:35 AM 33.8 °F 23.2 °F 26.6 °F 75% 30.00 in 10.0 mi NW 17.3 mph 25.3 mph N/A   Clear
3:55 AM 33.8 °F 22.5 °F 26.6 °F 75% 30.00 in 10.0 mi NW 19.6 mph 24.2 mph N/A   Mostly Cloudy
4:15 AM 33.8 °F 22.8 °F 26.6 °F 75% 30.01 in 10.0 mi NW 18.4 mph 26.5 mph N/A   Mostly Cloudy
4:35 AM 33.8 °F 22.8 °F 24.8 °F 70% 30.02 in 10.0 mi WNW 18.4 mph 24.2 mph N/A   Partly Cloudy
4:55 AM 32.0 °F 21.6 °F 24.8 °F 75% 30.04 in 10.0 mi NW 15.0 mph 23.0 mph N/A   Mostly Cloudy
5:15 AM 32.0 °F 22.5 °F 24.8 °F 75% 30.05 in 10.0 mi NW 12.7 mph - N/A   Mostly Cloudy
5:35 AM 32.0 °F 23.0 °F 24.8 °F 75% 30.05 in 10.0 mi WNW 11.5 mph - N/A   Overcast
5:55 AM 30.2 °F 20.2 °F 24.8 °F 80% 30.07 in 10.0 mi WNW 12.7 mph 17.3 mph N/A   Overcast
6:15 AM 32.0 °F 23.0 °F 24.8 °F 75% 30.08 in 10.0 mi WNW 11.5 mph - N/A   Overcast
6:35 AM 32.0 °F 22.5 °F 24.8 °F 75% 30.09 in 10.0 mi NW 12.7 mph - N/A   Overcast
6:55 AM 32.0 °F 22.5 °F 24.8 °F 75% 30.08 in 10.0 mi WNW 12.7 mph - N/A   Overcast
7:16 AM 30.2 °F 20.8 °F 24.8 °F 80% 30.09 in 10.0 mi WNW 11.5 mph - N/A   Mostly Cloudy
7:35 AM 30.2 °F 20.2 °F 23.0 °F 75% 30.10 in 10.0 mi WNW 12.7 mph - N/A   Scattered Clouds
7:55 AM 30.2 °F 21.3 °F 24.8 °F 80% 30.10 in 10.0 mi NW 10.4 mph - N/A   Clear
8:15 AM 28.4 °F 19.7 °F 24.8 °F 86% 30.10 in 10.0 mi WNW 9.2 mph - N/A   Clear
8:35 AM 28.4 °F 19.7 °F 23.0 °F 80% 30.11 in 10.0 mi WNW 9.2 mph - N/A   Clear
8:55 AM 30.2 °F 21.9 °F 24.8 °F 80% 30.11 in 10.0 mi West 9.2 mph - N/A   Clear
9:15 AM 30.2 °F 21.3 °F 24.8 °F 80% 30.12 in 10.0 mi West 10.4 mph - N/A   Clear
9:35 AM 33.8 °F 27.7 °F 24.8 °F 70% 30.11 in 10.0 mi NW 6.9 mph - N/A   Clear
9:55 AM 33.8 °F 25.8 °F 24.8 °F 70% 30.11 in 10.0 mi West 10.4 mph - N/A   Clear
10:15 AM 33.8 °F 24.8 °F 26.6 °F 75% 30.10 in 10.0 mi West 12.7 mph 17.3 mph N/A   Clear
10:35 AM 33.8 °F 27.0 °F 24.8 °F 70% 30.10 in 10.0 mi WSW 8.1 mph - N/A   Clear
10:55 AM 35.6 °F 27.5 °F 26.6 °F 70% 30.09 in 10.0 mi West 11.5 mph - N/A   Clear
11:15 AM 35.6 °F 28.6 °F 26.6 °F 70% 30.08 in 10.0 mi WNW 9.2 mph - N/A   Clear
11:35 AM 35.6 °F 28.0 °F 26.6 °F 70% 30.06 in 10.0 mi West 10.4 mph - N/A   Clear
11:55 AM 37.4 °F 29.8 °F 26.6 °F 65% 30.05 in 10.0 mi West 11.5 mph - N/A   Clear
12:15 PM 37.4 °F 29.8 °F 28.4 °F 70% 30.04 in 10.0 mi WSW 11.5 mph - N/A   Clear
12:35 PM 37.4 °F 29.8 °F 26.6 °F 65% 30.03 in 10.0 mi West 11.5 mph - N/A   Clear
12:55 PM 39.2 °F 33.0 °F 26.6 °F 61% 30.01 in 10.0 mi WSW 9.2 mph - N/A   Clear
1:15 PM 39.2 °F 33.6 °F 28.4 °F 65% 30.00 in 10.0 mi WSW 8.1 mph - N/A   Clear
1:55 PM 41.0 °F 35.8 °F 28.4 °F 61% 29.97 in 10.0 mi SW 8.1 mph - N/A   Clear
2:15 PM 42.8 °F 37.5 °F 28.4 °F 57% 29.97 in 10.0 mi SW 9.2 mph - N/A   Clear
2:35 PM 42.8 °F 37.5 °F 28.4 °F 57% 29.96 in 10.0 mi SW 9.2 mph 16.1 mph N/A   Clear
3:15 PM 41.0 °F 33.9 °F 28.4 °F 61% 29.93 in 10.0 mi SW 12.7 mph - N/A   Clear
3:35 PM 39.2 °F 32.5 °F 28.4 °F 65% 29.91 in 10.0 mi SW 10.4 mph - N/A   Clear
3:55 PM 39.2 °F 32.0 °F 28.4 °F 65% 29.90 in 10.0 mi SW 11.5 mph - N/A   Clear
4:15 PM 37.4 °F 29.3 °F 30.2 °F 75% 29.89 in 10.0 mi SW 12.7 mph - N/A   Clear
4:35 PM 37.4 °F 30.8 °F 28.4 °F 70% 29.88 in 10.0 mi SSW 9.2 mph - N/A   Clear
4:55 PM 35.6 °F 28.0 °F 28.4 °F 75% 29.87 in 10.0 mi South 10.4 mph - N/A   Clear
5:15 PM 33.8 °F 25.8 °F 28.4 °F 81% 29.87 in 10.0 mi South 10.4 mph - N/A   Clear
5:35 PM 33.8 °F 25.3 °F 28.4 °F 81% 29.85 in 10.0 mi SSW 11.5 mph - N/A   Clear
5:55 PM 33.8 °F 27.0 °F 28.4 °F 81% 29.85 in 10.0 mi South 8.1 mph - N/A   Clear
6:15 PM 33.8 °F 27.0 °F 28.4 °F 81% 29.85 in 10.0 mi South 8.1 mph - N/A   Clear
6:35 PM 33.8 °F 24.8 °F 28.4 °F 81% 29.83 in 10.0 mi SSW 12.7 mph - N/A   Clear
6:55 PM 33.8 °F 24.8 °F 28.4 °F 81% 29.82 in 10.0 mi SSW 12.7 mph - N/A   Clear
7:15 PM 33.8 °F 25.3 °F 28.4 °F 81% 29.81 in 10.0 mi SSW 11.5 mph - N/A   Clear
7:35 PM 33.8 °F 27.0 °F 28.4 °F 81% 29.80 in 10.0 mi SSW 8.1 mph - N/A   Clear
7:55 PM 33.8 °F 27.0 °F 28.4 °F 81% 29.79 in 10.0 mi SSW 8.1 mph - N/A   Clear
8:15 PM 33.8 °F 26.4 °F 28.4 °F 81% 29.79 in 10.0 mi SW 9.2 mph - N/A   Clear
8:35 PM 33.8 °F 25.8 °F 28.4 °F 81% 29.78 in 10.0 mi SW 10.4 mph - N/A   Clear
8:55 PM 33.8 °F 24.8 °F 28.4 °F 81% 29.77 in 10.0 mi SW 12.7 mph - N/A   Clear
9:15 PM 33.8 °F 24.8 °F 28.4 °F 81% 29.77 in 10.0 mi SSW 12.7 mph - N/A   Clear
9:35 PM 33.8 °F 26.4 °F 28.4 °F 81% 29.75 in 10.0 mi South 9.2 mph - N/A   Clear
9:55 PM 33.8 °F 26.4 °F 28.4 °F 81% 29.73 in 10.0 mi SSW 9.2 mph - N/A   Clear
10:15 PM 33.8 °F 25.3 °F 28.4 °F 81% 29.72 in 10.0 mi South 11.5 mph - N/A   Clear
10:35 PM 33.8 °F 23.9 °F 28.4 °F 81% 29.72 in 10.0 mi South 15.0 mph - N/A   Clear
10:55 PM 33.8 °F 24.3 °F 28.4 °F 81% 29.71 in 10.0 mi SSW 13.8 mph - N/A   Clear
11:15 PM 33.8 °F 25.3 °F 28.4 °F 81% 29.71 in 10.0 mi South 11.5 mph - N/A   Clear
11:55 PM 35.6 °F 27.5 °F 26.6 °F 70% 29.69 in 10.0 mi South 11.5 mph - N/A   Clear